KV5TX Weather Reports


time (UTC)temp
C
wind
direction
speed
KPH
gust
KPH
rain 1hr
cm
rain 24hr
cm
rain mn
cm
humidity
%
barometer
mb
20260510121405 19 222 0.0 0.0 0.00 0.00 0.00 75 1004.9
20260510120902 19 205 0.0 0.0 0.00 0.00 0.00 75 1004.6
20260510120359 19 223 0.0 0.0 0.00 0.00 0.00 75 1004.6
20260510115855 19 234 0.0 0.0 0.00 0.00 0.00 75 1004.9
20260510115352 19 234 0.0 0.0 0.00 0.00 0.00 75 1004.6
20260510114848 19 235 0.0 0.0 0.00 0.00 0.00 75 1004.6
20260510114345 19 235 0.0 0.0 0.00 0.00 0.00 75 1004.9
20260510113839 20 224 0.0 0.0 0.00 0.00 0.00 75 1004.6
20260510113336 20 235 0.0 0.0 0.00 0.00 0.00 75 1004.6
20260510112833 20 228 0.0 0.0 0.00 0.00 0.00 75 1004.9
20260510112330 20 226 0.0 0.0 0.00 0.00 0.00 75 1004.6
20260510111826 20 234 0.0 0.0 0.00 0.00 0.00 75 1004.6
20260510111323 20 236 0.0 0.0 0.00 0.00 0.00 75 1004.6
20260510110822 20 231 0.0 0.0 0.00 0.00 0.00 75 1004.6
20260510110320 20 232 0.0 0.0 0.00 0.00 0.00 75 1004.6
20260510105816 20 237 0.0 0.0 0.00 0.00 0.00 75 1004.6
20260510105316 20 234 0.0 0.0 0.00 0.00 0.00 75 1004.6
20260510104812 20 234 0.0 0.0 0.00 0.00 0.00 75 1004.6
20260510104310 20 226 0.0 4.8 0.00 0.00 0.00 75 1004.2
20260510103806 20 259 0.0 0.0 0.00 0.00 0.00 75 1003.9
20260510103303 20 234 0.0 0.0 0.00 0.00 0.00 75 1004.2
20260510102803 20 232 0.0 4.8 0.00 0.00 0.00 75 1004.2
20260510102259 20 251 0.0 0.0 0.00 0.00 0.00 75 1004.6
20260510101757 20 164 0.0 0.0 0.00 0.00 0.00 75 1004.2
20260510101255 20 232 0.0 0.0 0.00 0.00 0.00 75 1004.2
20260510100751 20 226 0.0 0.0 0.00 0.00 0.00 75 1004.2
20260510100249 20 224 0.0 0.0 0.00 0.00 0.00 75 1004.2
20260510095749 20 213 0.0 0.0 0.00 0.00 0.00 75 1004.2
20260510095245 20 219 0.0 0.0 0.00 0.00 0.00 75 1003.9
20260510094744 21 189 0.0 0.0 0.00 0.00 0.00 75 1004.2
20260510094240 21 221 0.0 0.0 0.00 0.00 0.00 75 1004.2
20260510093736 21 168 0.0 0.0 0.00 0.00 0.00 75 1004.2
20260510093233 21 215 0.0 0.0 0.00 0.00 0.00 75 1004.2
20260510092729 21 205 0.0 0.0 0.00 0.00 0.00 75 1003.9
20260510092225 21 210 0.0 4.8 0.00 0.00 0.00 75 1003.9
20260510091721 21 180 0.0 0.0 0.00 0.00 0.00 75 1003.9
20260510091218 21 227 0.0 0.0 0.00 0.00 0.00 75 1004.2
20260510090714 21 214 0.0 0.0 0.00 0.00 0.00 75 1003.9
20260510090211 21 233 0.0 0.0 0.00 0.00 0.00 75 1004.2
20260510085706 21 234 0.0 0.0 0.00 0.00 0.00 75 1004.2
20260510085201 21 230 0.0 0.0 0.00 0.00 0.00 75 1004.2
20260510084658 21 222 0.0 0.0 0.00 0.00 0.00 76 1003.9
20260510084155 21 240 0.0 0.0 0.00 0.00 0.00 76 1003.9
20260510083652 21 237 0.0 0.0 0.00 0.00 0.00 76 1003.9
20260510083149 21 230 0.0 0.0 0.00 0.00 0.00 76 1004.2
20260510082645 21 217 0.0 0.0 0.00 0.00 0.00 76 1004.2
20260510082140 21 217 0.0 0.0 0.00 0.00 0.00 76 1004.2
20260510081635 21 168 0.0 0.0 0.00 0.00 0.00 76 1004.2
20260510081131 21 218 0.0 0.0 0.00 0.00 0.00 77 1004.2
20260510080631 21 216 0.0 0.0 0.00 0.00 0.00 77 1004.6
20260510080128 21 230 0.0 0.0 0.00 0.00 0.00 77 1004.6
20260510075625 21 192 0.0 0.0 0.00 0.00 0.00 77 1004.6
20260510075122 21 233 0.0 0.0 0.00 0.00 0.00 76 1004.6
20260510074619 21 176 0.0 0.0 0.00 0.00 0.00 76 1004.6
20260510074115 21 213 0.0 0.0 0.00 0.00 0.00 76 1004.6
20260510073611 21 224 0.0 0.0 0.00 0.00 0.00 76 1004.2
20260510073108 21 221 0.0 0.0 0.00 0.00 0.00 76 1004.6
20260510072605 21 208 0.0 0.0 0.00 0.00 0.00 76 1004.6
20260510072101 22 219 0.0 0.0 0.00 0.00 0.00 76 1004.2
20260510071557 22 220 0.0 0.0 0.00 0.00 0.00 76 1004.6
20260510071055 22 193 0.0 0.0 0.00 0.00 0.00 75 1004.2
20260510070551 22 204 0.0 0.0 0.00 0.00 0.00 75 1004.6
20260510070049 22 205 0.0 0.0 0.00 0.00 0.00 75 1004.6
20260510065545 22 210 0.0 0.0 0.00 0.00 0.00 74 1004.2
20260510065041 22 209 0.0 0.0 0.00 0.00 0.00 74 1004.6
20260510064537 22 188 0.0 0.0 0.00 0.00 0.00 74 1004.2
20260510064034 22 172 0.0 0.0 0.00 0.00 0.00 74 1004.2
20260510063531 22 176 0.0 0.0 0.00 0.00 0.00 74 1004.6
20260510063028 22 209 0.0 0.0 0.00 0.00 0.00 74 1004.2
20260510062524 22 211 0.0 0.0 0.00 0.00 0.00 74 1004.2
20260510062019 22 214 0.0 0.0 0.00 0.00 0.00 74 1004.2
20260510061516 22 238 0.0 0.0 0.00 0.00 0.00 74 1004.2
20260510061013 22 224 0.0 0.0 0.00 0.00 0.00 74 1004.2
20260510060509 22 194 0.0 0.0 0.00 0.00 0.00 75 1004.6
20260510060006 22 195 0.0 0.0 0.00 0.00 0.00 75 1004.6
20260510055501 22 229 0.0 0.0 0.00 0.00 0.00 75 1004.6
20260510055000 22 228 0.0 0.0 0.00 0.00 0.00 75 1004.2
20260510054455 22 214 0.0 0.0 0.00 0.00 0.00 76 1004.2
20260510053950 22 229 0.0 0.0 0.00 0.00 0.00 76 1004.2
20260510053445 22 228 0.0 0.0 0.00 0.00 0.00 76 1004.6
20260510052942 22 213 0.0 0.0 0.00 0.00 0.00 76 1004.2
20260510052438 22 228 0.0 0.0 0.00 0.00 0.00 76 1004.6
20260510051934 22 225 0.0 0.0 0.00 0.00 0.00 76 1004.2
20260510051431 22 234 0.0 0.0 0.00 0.00 0.00 76 1004.2
20260510050927 22 238 0.0 0.0 0.00 0.00 0.00 76 1004.6
20260510050424 22 232 0.0 0.0 0.00 0.00 0.00 76 1004.2
20260510045921 23 229 0.0 0.0 0.00 0.00 0.00 76 1004.2
20260510045419 23 233 0.0 0.0 0.00 0.00 0.00 76 1004.2
20260510044915 23 233 0.0 0.0 0.00 0.00 0.00 76 1004.2
20260510044412 23 233 0.0 0.0 0.00 0.00 0.00 76 1004.2
20260510043909 23 233 0.0 0.0 0.00 0.00 0.00 76 1003.9
20260510043404 23 233 0.0 0.0 0.00 0.00 0.00 76 1004.2
20260510042903 23 233 0.0 0.0 0.00 0.00 0.00 76 1004.2
20260510042359 23 233 0.0 0.0 0.00 0.00 0.00 76 1004.2
20260510041854 23 233 0.0 0.0 0.00 0.00 0.00 76 1004.2
20260510041352 23 233 0.0 0.0 0.00 0.00 0.00 76 1004.2
20260510040849 23 233 0.0 0.0 0.00 0.00 0.00 75 1004.2
20260510040346 23 233 0.0 0.0 0.00 0.00 0.00 75 1003.9
20260510035841 23 233 0.0 0.0 0.00 0.00 0.00 75 1004.2
20260510035337 23 233 0.0 0.0 0.00 0.00 0.00 75 1004.2
20260510034833 23 233 0.0 0.0 0.00 0.00 0.00 75 1004.2
20260510034331 23 233 0.0 0.0 0.00 0.00 0.00 75 1003.9
20260510033828 23 233 0.0 0.0 0.00 0.00 0.00 74 1003.9
20260510033325 23 229 0.0 0.0 0.00 0.00 0.00 74 1003.9
20260510032821 23 229 0.0 0.0 0.00 0.00 0.00 74 1003.9
20260510032318 23 226 0.0 0.0 0.00 0.00 0.00 73 1003.9
20260510031813 23 234 0.0 0.0 0.00 0.00 0.00 73 1003.9
20260510031309 24 226 0.0 0.0 0.00 0.00 0.00 73 1003.5
20260510030803 24 226 0.0 0.0 0.00 0.00 0.00 73 1003.9
20260510030300 24 223 0.0 0.0 0.00 0.00 0.00 73 1003.9
20260510025757 24 215 0.0 0.0 0.00 0.00 0.00 72 1003.5
20260510025255 24 233 0.0 0.0 0.00 0.00 0.00 71 1003.5
20260510024751 24 233 0.0 0.0 0.00 0.00 0.00 70 1003.5
20260510024248 24 235 0.0 0.0 0.00 0.00 0.00 70 1003.5
20260510023744 25 235 0.0 0.0 0.00 0.00 0.00 69 1003.2
20260510023241 25 241 0.0 0.0 0.00 0.00 0.00 68 1003.5
20260510022737 25 226 0.0 0.0 0.00 0.00 0.00 67 1003.2
20260510022238 25 232 0.0 0.0 0.00 0.00 0.00 66 1003.2
20260510021732 25 232 0.0 0.0 0.00 0.00 0.00 65 1003.2
20260510021231 25 232 0.0 0.0 0.00 0.00 0.00 65 1002.9
20260510020730 26 232 0.0 0.0 0.00 0.00 0.00 64 1003.2
20260510020225 26 232 0.0 0.0 0.00 0.00 0.00 64 1003.2
20260510015721 26 231 0.0 0.0 0.00 0.00 0.00 63 1002.9
20260510015218 26 231 0.0 0.0 0.00 0.00 0.00 62 1002.9
20260510014713 26 232 0.0 0.0 0.00 0.00 0.00 62 1002.9
20260510014212 26 232 0.0 0.0 0.00 0.00 0.00 61 1002.9
20260510013711 27 232 0.0 0.0 0.00 0.00 0.00 61 1002.9
20260510013208 27 228 0.0 0.0 0.00 0.00 0.00 60 1002.5
20260510012702 27 228 0.0 0.0 0.00 0.00 0.00 59 1002.9
20260510012157 27 228 0.0 0.0 0.00 0.00 0.00 58 1002.9
20260510011652 27 226 0.0 0.0 0.00 0.00 0.00 57 1002.5
20260510011149 27 226 0.0 0.0 0.00 0.00 0.00 57 1002.5
20260510010644 27 220 0.0 0.0 0.00 0.00 0.00 56 1002.5
20260510010142 28 220 0.0 0.0 0.00 0.00 0.00 55 1002.5
20260510005638 28 218 0.0 0.0 0.00 0.00 0.00 54 1002.5
20260510005135 28 244 0.0 0.0 0.00 0.00 0.00 53 1002.5
20260510004633 28 224 0.0 0.0 0.00 0.00 0.00 52 1002.5
20260510004131 28 245 0.0 0.0 0.00 0.00 0.00 51 1002.5
20260510003627 28 228 0.0 0.0 0.00 0.00 0.00 49 1002.1
20260510003124 29 227 0.0 0.0 0.00 0.00 0.00 49 1002.1
20260510002623 29 231 0.0 0.0 0.00 0.00 0.00 49 1002.1
20260510002120 29 163 0.0 4.8 0.00 0.00 0.00 48 1002.1
20260510001617 29 241 0.0 0.0 0.00 0.00 0.00 48 1001.8
20260510001116 30 229 0.0 0.0 0.00 0.00 0.00 47 1001.8
20260510000616 30 228 0.0 0.0 0.00 0.00 0.00 46 1001.8
20260510000113 30 249 0.0 0.0 0.00 0.00 0.00 46 1001.8
20260509235609 30 198 0.0 0.0 0.00 0.00 0.00 48 1002.1
20260509235107 30 233 0.0 0.0 0.00 0.00 0.00 51 1001.8
20260509234603 30 234 0.0 0.0 0.00 0.00 0.00 53 1001.8
20260509234101 30 209 0.0 0.0 0.00 0.00 0.00 54 1001.8
20260509233558 30 228 0.0 0.0 0.00 0.00 0.00 53 1001.4
20260509233055 30 222 0.0 0.0 0.00 0.00 0.00 52 1001.8
20260509232551 31 235 0.0 0.0 0.00 0.00 0.00 51 1001.8
20260509232048 31 223 0.0 0.0 0.00 0.00 0.00 49 1001.4
20260509231544 31 242 0.0 0.0 0.00 0.00 0.00 51 1001.8
20260509231043 31 220 0.0 0.0 0.00 0.00 0.00 53 1001.4
20260509230539 31 231 0.0 0.0 0.00 0.00 0.00 51 1001.8
20260509230036 31 247 0.0 0.0 0.00 0.00 0.00 52 1001.4
20260509225531 31 244 0.0 0.0 0.00 0.00 0.00 52 1001.4
20260509225027 31 230 0.0 0.0 0.00 0.00 0.00 52 1001.8
20260509224523 30 285 0.0 0.0 0.00 0.00 0.00 52 1001.8
20260509224020 30 223 0.0 0.0 0.00 0.00 0.00 53 1001.8
20260509223517 30 231 0.0 0.0 0.00 0.00 0.00 53 1001.8
20260509223015 30 230 0.0 0.0 0.00 0.00 0.00 54 1001.8
20260509222511 30 267 0.0 0.0 0.00 0.00 0.00 54 1001.4
20260509222006 30 230 0.0 0.0 0.00 0.00 0.00 53 1001.8
20260509221502 30 258 0.0 0.0 0.00 0.00 0.00 53 1001.8
20260509220958 30 243 0.0 0.0 0.00 0.00 0.00 54 1001.8
20260509220455 30 235 0.0 0.0 0.00 0.00 0.00 55 1001.8
20260509215950 30 236 0.0 0.0 0.00 0.00 0.00 54 1001.8
20260509215446 30 190 0.0 0.0 0.00 0.00 0.00 53 1001.8
20260509214945 30 185 1.6 4.8 0.00 0.00 0.00 52 1001.8
20260509214441 30 226 0.0 4.8 0.00 0.00 0.00 53 1002.1
20260509213938 30 329 0.0 0.0 0.00 0.00 0.00 52 1001.8
20260509213433 30 226 0.0 0.0 0.00 0.00 0.00 52 1002.1
20260509212931 30 225 0.0 4.8 0.00 0.00 0.00 51 1002.5
20260509212429 31 220 0.0 0.0 0.00 0.00 0.00 52 1002.1
20260509211924 31 171 3.2 8.0 0.00 0.00 0.00 52 1002.1
20260509211420 32 244 0.0 0.0 0.00 0.00 0.00 51 1002.1
20260509210917 32 243 0.0 0.0 0.00 0.00 0.00 53 1002.5
20260509210414 32 204 0.0 0.0 0.00 0.00 0.00 49 1002.1
20260509205910 33 227 0.0 0.0 0.00 0.00 0.00 48 1002.5
20260509205409 33 220 0.0 0.0 0.00 0.00 0.00 47 1002.1
20260509204906 33 32 0.0 0.0 0.00 0.00 0.00 49 1002.5
20260509204402 33 229 0.0 0.0 0.00 0.00 0.00 47 1002.5
20260509203859 33 224 0.0 0.0 0.00 0.00 0.00 46 1002.5
20260509203355 33 218 0.0 0.0 0.00 0.00 0.00 46 1002.9
20260509202853 33 230 0.0 0.0 0.00 0.00 0.00 47 1002.9
20260509202348 33 131 0.0 0.0 0.00 0.00 0.00 46 1002.9
20260509201843 33 230 0.0 0.0 0.00 0.00 0.00 49 1002.9
20260509201339 33 212 0.0 0.0 0.00 0.00 0.00 49 1002.9
20260509200836 33 252 0.0 0.0 0.00 0.00 0.00 47 1002.9
20260509200331 33 193 0.0 0.0 0.00 0.00 0.00 48 1002.9
20260509195828 33 243 0.0 0.0 0.00 0.00 0.00 52 1002.9
20260509195328 33 222 0.0 0.0 0.00 0.00 0.00 48 1002.9
20260509194828 32 292 0.0 0.0 0.00 0.00 0.00 49 1002.9
20260509194324 32 224 0.0 0.0 0.00 0.00 0.00 47 1002.9
20260509193821 32 221 0.0 0.0 0.00 0.00 0.00 47 1002.9
20260509193321 32 228 1.6 4.8 0.00 0.00 0.00 49 1002.9
20260509192817 32 230 0.0 0.0 0.00 0.00 0.00 51 1003.2
20260509192313 32 181 0.0 4.8 0.00 0.00 0.00 51 1003.2
20260509191808 32 152 1.6 4.8 0.00 0.00 0.00 51 1003.2
20260509191305 32 225 0.0 0.0 0.00 0.00 0.00 52 1003.2
20260509190800 32 229 0.0 0.0 0.00 0.00 0.00 53 1003.2
20260509190258 31 221 0.0 0.0 0.00 0.00 0.00 54 1003.2
20260509185755 31 191 0.0 0.0 0.00 0.00 0.00 53 1003.5
20260509185251 31 231 0.0 0.0 0.00 0.00 0.00 56 1003.9
20260509184749 31 234 0.0 0.0 0.00 0.00 0.00 54 1003.5
20260509184246 31 212 0.0 0.0 0.00 0.00 0.00 54 1003.9
20260509183742 31 226 0.0 0.0 0.00 0.00 0.00 57 1003.9
20260509183237 31 227 0.0 0.0 0.00 0.00 0.00 57 1003.9
20260509182733 31 264 0.0 0.0 0.00 0.00 0.00 56 1003.9
20260509182231 31 220 0.0 0.0 0.00 0.00 0.00 58 1004.2
20260509181728 31 223 0.0 0.0 0.00 0.00 0.00 56 1004.2
20260509181226 31 163 0.0 0.0 0.00 0.00 0.00 55 1004.2
20260509180723 31 246 0.0 0.0 0.00 0.00 0.00 57 1004.2
20260509180219 31 222 0.0 0.0 0.00 0.00 0.00 57 1004.2
20260509175715 31 208 0.0 0.0 0.00 0.00 0.00 57 1004.6
20260509175212 30 215 0.0 0.0 0.00 0.00 0.00 58 1004.6
20260509174707 30 230 0.0 0.0 0.00 0.00 0.00 62 1004.6
20260509174203 30 224 0.0 0.0 0.00 0.00 0.00 59 1004.6
20260509173659 30 237 0.0 0.0 0.00 0.00 0.00 60 1004.6
20260509173155 30 234 0.0 0.0 0.00 0.00 0.00 60 1004.9
20260509172651 30 176 0.0 0.0 0.00 0.00 0.00 60 1005.2
20260509172148 30 188 0.0 4.8 0.00 0.00 0.00 63 1004.9
20260509171643 30 338 0.0 0.0 0.00 0.00 0.00 61 1004.6
20260509171140 30 201 0.0 0.0 0.00 0.00 0.00 61 1004.6
20260509170637 29 170 0.0 0.0 0.00 0.00 0.00 61 1004.9
20260509170133 29 239 0.0 0.0 0.00 0.00 0.00 64 1004.9
20260509165631 29 218 0.0 0.0 0.00 0.00 0.00 62 1004.9
20260509165127 28 215 0.0 0.0 0.00 0.00 0.00 64 1004.9
20260509164623 28 212 0.0 0.0 0.00 0.00 0.00 65 1004.6
20260509164119 28 238 0.0 0.0 0.00 0.00 0.00 66 1004.6
20260509163617 28 249 0.0 0.0 0.00 0.00 0.00 65 1004.9
20260509163112 28 222 0.0 0.0 0.00 0.00 0.00 66 1004.9
20260509162610 27 229 0.0 0.0 0.00 0.00 0.00 66 1004.6
20260509162105 27 209 0.0 0.0 0.00 0.00 0.00 67 1004.6
20260509161602 26 262 0.0 0.0 0.00 0.00 0.00 67 1004.9
20260509161103 26 217 1.6 4.8 0.00 0.00 0.00 68 1004.9
20260509160559 26 250 0.0 0.0 0.00 0.00 0.00 69 1004.6
20260509160054 25 237 0.0 4.8 0.00 0.00 0.00 70 1004.6
20260509155550 25 228 0.0 0.0 0.00 0.00 0.00 75 1004.6
20260509155047 24 215 0.0 0.0 0.00 0.00 0.00 76 1004.9
20260509154543 23 215 0.0 0.0 0.00 0.00 0.00 78 1004.9
20260509154040 23 284 1.6 4.8 0.00 0.00 0.00 79 1004.9
20260509153537 23 185 0.0 0.0 0.00 0.00 0.00 80 1005.2
20260509153034 23 212 0.0 0.0 0.00 0.00 0.00 80 1005.2
20260509152530 23 227 0.0 4.8 0.00 0.00 0.00 80 1004.9
20260509152027 23 214 1.6 4.8 0.00 0.00 0.00 81 1004.9
20260509151523 23 184 1.6 4.8 0.00 0.00 0.00 81 1004.9
20260509151021 23 253 0.0 0.0 0.00 0.00 0.00 81 1004.9
20260509150518 23 197 0.0 0.0 0.00 0.00 0.00 82 1004.9
20260509150017 23 207 0.0 0.0 0.00 0.00 0.00 82 1004.9
20260509145512 23 168 1.6 4.8 0.00 0.00 0.00 82 1004.6
20260509145007 23 229 0.0 0.0 0.00 0.00 0.00 82 1004.6
20260509144505 23 166 0.0 4.8 0.00 0.00 0.00 82 1004.6
20260509144002 23 220 0.0 0.0 0.00 0.00 0.00 82 1004.2
20260509143459 23 223 0.0 4.8 0.00 0.00 0.00 82 1004.6
20260509142955 23 246 0.0 0.0 0.00 0.00 0.00 82 1004.6
20260509142452 23 189 0.0 0.0 0.00 0.00 0.00 82 1004.2
20260509141947 22 219 0.0 0.0 0.00 0.00 0.00 82 1003.9
20260509141444 22 159 0.0 0.0 0.00 0.00 0.00 83 1003.9
20260509140941 22 213 0.0 0.0 0.00 0.00 0.00 84 1003.9
20260509140437 22 222 0.0 0.0 0.00 0.00 0.00 85 1003.9
20260509135936 22 167 0.0 0.0 0.00 0.00 0.00 85 1003.9
20260509135433 22 215 0.0 0.0 0.00 0.00 0.00 85 1003.9
20260509134930 22 166 0.0 0.0 0.00 0.00 0.00 85 1003.9
20260509134427 22 215 0.0 0.0 0.00 0.00 0.00 85 1003.9
20260509133925 22 205 0.0 0.0 0.00 0.00 0.00 85 1004.2
20260509133421 22 211 0.0 0.0 0.00 0.00 0.00 85 1004.6
20260509132920 22 217 0.0 0.0 0.00 0.00 0.00 85 1004.6
20260509132417 22 217 0.0 0.0 0.00 0.00 0.00 85 1004.6
20260509131914 22 227 0.0 0.0 0.00 0.00 0.00 85 1004.6
20260509131411 21 234 0.0 0.0 0.00 0.00 0.00 85 1004.6
20260509130908 21 216 0.0 0.0 0.00 0.00 0.00 85 1004.6
20260509130403 21 223 0.0 0.0 0.00 0.00 0.00 85 1004.6
20260509125900 21 215 0.0 0.0 0.00 0.00 0.00 86 1004.2
20260509125357 21 221 0.0 0.0 0.00 0.00 0.00 85 1004.6
20260509124852 21 238 0.0 0.0 0.00 0.00 0.00 85 1004.2
20260509124350 21 225 0.0 0.0 0.00 0.00 0.00 86 1004.2
20260509123848 21 225 0.0 0.0 0.00 0.00 0.00 85 1003.9
20260509123345 21 209 0.0 0.0 0.00 0.00 0.00 85 1004.2
20260509122840 21 218 0.0 0.0 0.00 0.00 0.00 86 1003.9
20260509122337 21 195 0.0 0.0 0.00 0.00 0.00 85 1003.9
20260509121834 21 220 0.0 0.0 0.00 0.00 0.00 86 1004.2